Regional Weather Roundup
Issued by NWS Wakefield, VA

Home | Current Version | Previous Version | Text Only | Print | Product List | Glossary Off
Versions: 1 2 3 4 5 6 7 8 9 10 11 12 13 14 15 16 17 18 19 20 21 22 23 24 25 26 27 28 29 30 31 32 33 34 35 36 37 38 39 40 41 42 43 44 45 46 47 48 49 50

000
ASUS41 KAKQ 222315
RWRAKQ

REGIONAL WEATHER ROUNDUP
NATIONAL WEATHER SERVICE WAKEFIELD VA
600 PM EST WED FEB 22 2017

Note: "fair" indicates few or no clouds below 12,000 feet with no
significant weather and/or obstructions to visibility. * = Denotes
station may not report precipitation (e.g., rain,snow,etc.),
thunder or fog.

VAZ042-051-052>054-056-230000-
NORTHERN VIRGINIA

CITY           SKY/WX    TMP DP  RH WIND       PRES   REMARKS
WASH NATIONAL  MOCLDY    56  48  74 S8        29.91S
DULLES         MOCLDY    59  47  64 SE6       29.90R
FORT BELVOIR   PTCLDY    58  47  66 SE6       29.90F
QUANTICO       MOCLDY    57  48  72 SW3       29.92S
FREDERICKSBRG* CLOUDY    60  54  78 S8        29.91S
STAFFORD*      MOCLDY    60  53  77 SW3       29.95S
WARRENTON      MOCLDY    60  48  62 S3        29.90S
CULPEPER*      PTCLDY    60  52  74 CALM      29.91S
MANASSAS*      PTCLDY    60  49  66 S5        29.90S
LEESBURG*      CLEAR     63  52  67 MISG      29.90S
WINCHESTER     CLEAR     59  45  58 SE3       29.88R
FRONT ROYAL*   CLEAR     63  48  59 SW3       29.87S
LURAY*         MOCLDY    61  52  72 SW6       29.88S
$$

VAZ048-049-060>072-079>083-230000-
CENTRAL AND SOUTH CENTRAL VIRGINIA

CITY           SKY/WX    TMP DP  RH WIND       PRES   REMARKS
RICHMOND       CLOUDY    54  54 100 S6        29.95S FOG
CHESTERFIELD*  CLOUDY    54  39  58 S3        29.96F
PETERSBURG*    DRIZZLE   53  52  95 CALM      29.96F
HANOVER        CLOUDY    56  51  84 S8        29.95F
TAPPAHANNOCK*  MOCLDY    57  57  98 S3        29.95S
QUINTON*       CLOUDY    55  55 100 S9        29.94S
CHARLOTTSVILLE CLOUDY    60  52  74 S9        29.89F
GORDONSVILLE*  CLOUDY    57  53  84 S3        29.90S
ORANGE*        MOCLDY    57  50  77 CALM      29.92S
LOUISA*        CLOUDY    61  57  88 S5        29.90S
BUMPASS*       FAIR      56  54  91 SW3       29.92S
FARMVILLE*     CLOUDY    56  56 100 S3        29.93S FOG
CREWE*         CLOUDY    55  55 100 CALM      29.95S
FORT PICKETT*  CLOUDY   N/A N/A N/A S3        29.96S
CHASE CITY*    CLOUDY    55  53  94 CALM      29.95F
CLARKSVILLE*   CLOUDY    54  54 100 CALM      29.95F
SOUTH HILL*    CLOUDY    55  55  99 CALM      30.01S
LAWRENCEVILLE* MOCLDY    56  55  96 CALM      29.96S
EMPORIA*       LGT RAIN  54  54 100 CALM      29.97F
$$

VAZ088>098-230000-
SOUTHEAST VIRGINIA

CITY           SKY/WX    TMP DP  RH WIND       PRES   REMARKS
NORFOLK        CLOUDY    58  49  72 NE7       29.97S
VIRGINIA BEACH CLOUDY    60  50  69 E3        29.96S
NORFOLK NAVAL  CLOUDY    58  50  75 E6        29.98S
WEST POINT*    CLOUDY    55  54  94 SE6       29.97F
SALUDA*        CLOUDY    55  55 100 S5        29.95F
NEWPORT NEWS   LGT RAIN  56  55  97 CALM      29.97S
LANGLEY AFB    CLOUDY    56  56  99 E3        29.96S
FORT EUSTIS    LGT RAIN  56  53  89 NW3       29.94S
WILLIAMSBURG*  CLOUDY    57  55  94 CALM      29.97F
HR EXEC AP*    CLOUDY    59  50  72 E6        29.95S
FRANKLIN*      LGT RAIN  57  52  81 CALM      29.97R
US460-WAKEFLD  LGT RAIN  55  54  96 CALM      29.97S
$$

VAZ020-022-025-037-045-230000-
WEST CENTRAL AND SOUTHWEST VIRGINIA

CITY           SKY/WX    TMP DP  RH WIND       PRES   REMARKS
STAUNTON*      CLOUDY    55  50  82 S8        29.92S
WAYNESBORO*    CLOUDY    55  51  85 SW5       29.91S
HOT SPRINGS VA DRZL/FOG  50  50 100 W8        29.94S VSB<1/4
LYNCHBURG      CLOUDY    54  52  93 SW7       29.95S
DANVILLE       LGT RAIN  55  55 100 CALM      29.95F FOG
SOUTH BOSTON*  CLOUDY    55  53  95 CALM      29.95F
MARTINSVILLE   LGT RAIN  54  53  97 CALM      29.96F
ROANOKE        CLOUDY    54  51  90 SE3       29.95S
BLACKSBURG     CLOUDY    53  52  98 NW5       29.97S FOG
DUBLIN*        CLOUDY    54  53  99 SW3       29.96S FOG
MARION*        CLOUDY    52  51  96 NE5       29.97S FOG
HILLSVILLE*    LGT RAIN  52  52 100 CALM      29.96R
RICHLANDS*     MOCLDY    55  53  94 CALM      29.93S
WISE*          CLOUDY    55  55 100 CALM      29.93F
ABINGDON*      CLOUDY    56  56  97 E6        29.93R
$$

MDZ021>025-VAZ099-100-230000-
SOUTHERN MARYLAND AND THE DELMARVA PENINSULA

CITY           SKY/WX    TMP DP  RH WIND       PRES   REMARKS
PATUXENT RIVER MOCLDY    57  54  89 S6        29.93S
BAY BRIDGE APT PTCLDY    52  46  82 S6        29.92S HAZE
LEONARDTOWN    CLOUDY    57  52  82 S3        29.94S
DOVER          CLEAR     48  48 100 CALM      29.92S
GEORGETOWN     PTCLDY    57  50  77 SW9       29.94S
EASTON         CLEAR     57  46  67 S5        29.97R
CAMBRIDGE      CLEAR     52  48  87 SE6       29.94S
SALISBURY      CLOUDY    56  50  80 SW6       29.95R
OCEAN CITY     PTCLDY    51  46  83 S5        29.95S
WALLOPS ISLAND CLOUDY    57  54  89 W8        29.97R
ACCOMACK*      DRIZZLE   56  55  96 SW7       29.97S
$$

NCZ012>017-030>032-230000-
NORTH CENTRAL AND EASTERN NORTH CAROLINA

CITY           SKY/WX    TMP DP  RH WIND       PRES   REMARKS
ROANOKE RAPIDS CLOUDY    59  52  77 CALM      29.95S
RALEIGH        CLOUDY    66  52  60 NE5       29.93S
ELIZABETH CITY CLOUDY    60  51  72 E6        29.96S
AHOSKIE*       NOT AVBL
EDENTON*       CLOUDY    64  51  63 E5        29.96S
CURRITUCK*     CLOUDY    62  49  63 CALM      29.97S
KILL DEVIL HLS NOT AVBL
MANTEO         CLOUDY    61  49  65 SE6       29.98R
CAPE HATTERAS  MOCLDY    67  53  61 S7        29.97S
TARBORO*       NOT AVBL
GOLDSBORO      CLOUDY    68  54  59 SE7       29.91S
WASHINGTON     CLOUDY    65  53  64 SE5       29.94S
GREENVILLE     CLOUDY    70  50  49 S3        29.96R
NEW BERN       PTCLDY    65  52  62 S5        29.96R
WILMINGTON     MOCLDY    66  55  67 SE7       29.94R
$$

VAZ048-230000-
ELSEWHERE

CITY           SKY/WX    TMP DP  RH WIND       PRES   REMARKS
HARRISBURG PA  MOCLDY    54  42  64 S3        29.88S
BALTIMORE      MOCLDY    54  46  74 SE5       29.90F
ANNAPOLIS      PTCLDY    49  46  90 SE7       29.92S
ANDREWS AFB    PTCLDY    56  47  69 S7        29.90S
PHILADELPHIA   MOCLDY    54  42  64 SW7       29.93R
HENDERSON NC   CLOUDY    54  50  87 NE3       29.95F
GREENSBORO     CLOUDY    57  56  96 N5        29.94S FOG
ROCKY MOUNT    CLOUDY    64  52  64 CALM      29.94R
$$

VAZ100-230000-
MARINE

STATION/POSITION TIME  TEMP    WIND        PRES    WAVE   SWELL
                       AIR SEA DIR/SP/G            HT/PER HT/PER
                 (UTC) (F)     (DEG/KT/KT) (MB)    (FT/S) (FT/S)
CAPE MAY NJ      2236   51 44  240/  4/  5 1013.2S
LEWES DE         2248   58 43  250/  6/  8 1013.5R
OCEAN-CITY-INLET 2248          230/  7/  7   N/A
WACHAPREAGUE VA  2236   56 50  260/  5/  9 1015.0R
THOMAS POINT MD  2300   47 44  190/  7/  8   N/A
GOOSES REEF MD   2300   47 44  170/  8/ 10 1014.0
COVE POINT MD    2236   46     180/  9/ 10 1014.1S
SOLOMONS ISLAND  2248          110/  5/  6   N/A
BISHOPS HEAD MD  2248   52 48  190/  9/  9 1014.2S
PINEY POINT MD   2248          190/  2/  3   N/A
POTOMAC MD       2300   51 45  190/  4/  6 1013.0
CAMBRIDGE MD     2236   56 42  160/  3/  5 1012.9F
LEWISETTA VA     2248   57 48  220/  7/  9 1013.5R
RAPPAHANNOCK LGT 2248          150/  6/  6 1015.4F
YORK RVR RNG VA  2236   54     120/  4/  4 1014.0F
YORKTOWN VA      2248   55 45   80/  2/  3 1014.3F
JAMESTOWN VA     2300   53 50  170/  2/  2   N/A     0
DOMINION TERM VA 2248   54      80/  9/ 13 1014.8R
KIPTOPEKE VA     2248      47   70/  4/  5   N/A
CHES BAY BRIDGE  2248   55 47   50/  8/  8 1014.7F
CAPE HENRY VA    2248   58      30/  6/  7   N/A
WILLOUBY STN VA  2248   54      80/  9/  9 1015.6F
S CRANEY ISL VA  2248   56      80/  8/  9 1014.5S
CAPE HENRY BUOY  2242      49                N/A     3/10   2/11
OFFSHORE WE BUOY 2251      48                N/A     3/ 9   2/11
64NM E OF VA BCH 2250   58 55  170/  6/  6 1014.9S   3/ 9   3/ 9
DUCK PIER NC     2236   53 48  140/  8/  8 1014.2S
44100 DUCK FRF   2235      49                N/A     3/ 9   2/11
44056 DUCK FRF   2230      51                N/A     3/ 9   2/11
OREGON INLET NC  2248          100/  5/  7   N/A
HATTERAS NC      2248   66 60  160/  4/  6 1014.4S
DIAMOND SHLS NC  2250   67 75  130/  8/ 12 1014.8R   3/ 8   2/ 8
CAPE LOOKOUT NC  2300   63     150/  1/  2 1014.0R
$$



USA.gov is the U.S. government's official web portal to all federal, state and local government web resources and services.